K4AXV-13 Weather Reports


time (UTC)temp
C
wind
direction
speed
KPH
gust
KPH
rain 1hr
cm
rain 24hr
cm
rain mn
cm
humidity
%
barometer
mb
20260507012708 22 285 0.0 0.0 0.00 0.00 0.00
20260507011706 22 339 1.6 0.0 0.00 0.00 0.00
20260507011207 22 349 0.0 1.6 0.00 0.00 0.00
20260507010706 22 322 1.6 0.0 0.00 0.00 0.00
20260507010207 22 354 4.8 3.2 0.00 0.00 0.00
20260507005703 22 238 0.0 1.6 0.00 0.00 0.00
20260507005204 22 274 1.6 4.8 0.00 0.00 0.00
20260507004701 22 25 0.0 0.0 0.00 0.00 0.00
20260507003659 22 256 1.6 3.2 0.00 0.00 0.00
20260507003200 23 352 1.6 1.6 0.00 0.00 0.00
20260507002657 23 314 0.0 0.0 0.00 0.00 0.00
20260507002158 23 307 1.6 0.0 0.00 0.00 0.00
20260507001654 23 277 8.0 14.5 0.00 0.00 0.00
20260507000653 23 349 1.6 4.8 0.00 0.00 0.00
20260507000154 23 333 6.4 1.6 0.00 0.00 0.00
20260506235653 23 357 1.6 0.0 0.00 0.00 0.00
20260506235154 24 325 3.2 4.8 0.00 0.00 0.00
20260506234650 24 301 1.6 0.0 0.00 0.00 0.00
20260506234151 24 329 1.6 3.2 0.00 0.00 0.00
20260506233647 25 96 0.0 0.0 0.00 0.00 0.00
20260506233148 24 307 4.8 9.7 0.00 0.00 0.00
20260506232645 24 248 0.0 0.0 0.00 0.00 0.00
20260506231642 25 318 1.6 0.0 0.00 0.00 0.00
20260506231143 25 3 0.0 0.0 0.00 0.00 0.00
20260506230904 25 350 1.6 6.4 0.00 0.00 0.00
20260506230640 25 350 1.6 6.4 0.00 0.00 0.00
20260506230142 25 21 1.6 0.0 0.00 0.00 0.00
20260506225638 26 307 4.8 1.6 0.00 0.00 0.00
20260506225139 26 108 1.6 6.4 0.00 0.00 0.00
20260506224137 26 325 1.6 0.0 0.00 0.00 0.00
20260506223635 26 359 1.6 0.0 0.00 0.00 0.00
20260506222634 26 304 3.2 0.0 0.00 0.00 0.00
20260506222135 26 325 1.6 0.0 0.00 0.00 0.00
20260506221631 26 323 1.6 6.4 0.00 0.00 0.00
20260506221132 26 352 3.2 0.0 0.00 0.00 0.00
20260506220132 27 70 1.6 1.6 0.00 0.00 0.00
20260506215628 27 340 3.2 0.0 0.00 0.00 0.00
20260506215128 27 326 0.0 1.6 0.00 0.00 0.00
20260506214127 27 75 3.2 3.2 0.00 0.00 0.00
20260506213626 27 115 3.2 1.6 0.00 0.00 0.00
20260506212625 27 315 3.2 0.0 0.00 0.00 0.00
20260506211624 28 10 8.0 3.2 0.00 0.00 0.00
20260506205124 28 311 4.8 9.7 0.00 0.00 0.00
20260506204620 28 301 1.6 6.4 0.00 0.00 0.00
20260506204122 28 114 6.4 8.0 0.00 0.00 0.00
20260506203618 29 124 3.2 0.0 0.00 0.00 0.00
20260506203119 29 4 1.6 0.0 0.00 0.00 0.00
20260506202618 29 262 8.0 6.4 0.00 0.00 0.00
20260506202119 28 79 3.2 8.0 0.00 0.00 0.00
20260506201615 29 31 4.8 1.6 0.00 0.00 0.00
20260506201116 29 270 3.2 8.0 0.00 0.00 0.00
20260506200614 28 263 3.2 4.8 0.00 0.00 0.00
20260506200115 28 277 4.8 1.6 0.00 0.00 0.00
20260506195614 28 307 0.0 0.0 0.00 0.00 0.00
20260506195115 28 325 3.2 3.2 0.00 0.00 0.00
20260506194114 28 285 3.2 0.0 0.00 0.00 0.00
20260506193612 28 352 1.6 6.4 0.00 0.00 0.00
20260506191111 29 295 3.2 1.6 0.00 0.00 0.00
20260506190610 29 318 4.8 8.0 0.00 0.00 0.00
20260506190111 29 311 3.2 0.0 0.00 0.00 0.00
20260506185609 29 0 6.4 1.6 0.00 0.00 0.00
20260506184110 30 235 6.4 9.7 0.00 0.00 0.00
20260506183608 30 332 4.8 4.8 0.00 0.00 0.00
20260506183109 30 332 4.8 0.0 0.00 0.00 0.00
20260506182608 29 305 3.2 9.7 0.00 0.00 0.00
20260506182109 30 271 4.8 6.4 0.00 0.00 0.00
20260506181605 30 328 1.6 0.0 0.00 0.00 0.00
20260506180604 29 316 6.4 0.0 0.00 0.00 0.00
20260506180105 29 283 0.0 0.0 0.00 0.00 0.00
20260506175603 29 225 8.0 9.7 0.00 0.00 0.00
20260506175105 28 257 8.0 12.9 0.00 0.00 0.00
20260506174602 28 255 4.8 3.2 0.00 0.00 0.00
20260506174103 28 349 8.0 3.2 0.00 0.00 0.00
20260506173602 28 314 4.8 3.2 0.00 0.00 0.00
20260506173103 28 319 11.3 8.0 0.00 0.00 0.00
20260506172601 28 340 6.4 1.6 0.00 0.00 0.00
20260506172103 28 8 9.7 3.2 0.00 0.00 0.00
20260506171559 29 236 4.8 0.0 0.00 0.00 0.00
20260506171100 30 359 4.8 0.0 0.00 0.00 0.00
20260506170558 30 295 8.0 9.7 0.00 0.00 0.00
20260506170059 29 323 1.6 6.4 0.00 0.00 0.00
20260506165556 29 300 3.2 0.0 0.00 0.00 0.00
20260506165057 29 255 3.2 8.0 0.00 0.00 0.00
20260506164555 30 229 3.2 0.0 0.00 0.00 0.00
20260506164056 30 248 6.4 1.6 0.00 0.00 0.00
20260506163553 31 311 0.0 6.4 0.00 0.00 0.00
20260506163054 31 248 9.7 3.2 0.00 0.00 0.00
20260506162553 31 108 1.6 0.0 0.00 0.00 0.00
20260506162054 31 326 8.0 1.6 0.00 0.00 0.00
20260506161550 31 249 3.2 6.4 0.00 0.00 0.00
20260506161050 30 321 9.7 8.0 0.00 0.00 0.00
20260506160547 30 314 4.8 4.8 0.00 0.00 0.00
20260506160048 30 305 4.8 8.0 0.00 0.00 0.00
20260506155546 30 342 9.7 6.4 0.00 0.00 0.00
20260506155047 30 291 4.8 3.2 0.00 0.00 0.00
20260506154545 29 305 6.4 8.0 0.00 0.00 0.00
20260506153543 28 239 0.0 0.0 0.00 0.00 0.00
20260506152542 27 352 3.2 0.0 0.00 0.00 0.00
20260506152043 27 4 6.4 4.8 0.00 0.00 0.00
20260506151042 26 347 3.2 8.0 0.00 0.00 0.00
20260506150042 26 314 6.4 3.2 0.00 0.00 0.00
20260506145727 25 319 4.8 4.8 0.00 0.00 0.00
20260506145042 25 319 4.8 4.8 0.00 0.00 0.00
20260506144129 25 335 4.8 4.8 0.00 0.00 0.00
20260506144041 25 243 0.0 0.0 0.00 0.00 0.00
20260506143543 24 326 4.8 8.0 0.00 0.00 0.00
20260506143540 25 335 4.8 4.8 0.00 0.00 0.00
20260506143041 24 326 4.8 8.0 0.00 0.00 0.00
20260506142539 24 315 8.0 3.2 0.00 0.00 0.00
20260506142447 24 291 0.0 0.0 0.00 0.00 0.00
20260506142041 24 291 0.0 0.0 0.00 0.00 0.00
20260506141904 24 308 3.2 0.0 0.00 0.00 0.00
20260506141539 24 308 3.2 0.0 0.00 0.00 0.00
20260506141414 23 270 3.2 6.4 0.00 0.00 0.00
20260506141040 23 270 3.2 6.4 0.00 0.00 0.00
20260506140734 23 312 3.2 4.8 0.00 0.00 0.00
20260506140638 23 312 3.2 4.8 0.00 0.00 0.00
20260506140538 23 312 3.2 4.8 0.00 0.00 0.00
20260506140300 23 283 4.8 1.6 0.00 0.00 0.00
20260506140038 23 283 4.8 1.6 0.00 0.00 0.00
20260506135247 23 300 1.6 0.0 0.00 0.00 0.00
20260506135037 23 300 1.6 0.0 0.00 0.00 0.00
20260506134628 23 239 4.8 4.8 0.00 0.00 0.00
20260506134535 23 239 4.8 4.8 0.00 0.00 0.00
20260506134157 22 262 3.2 4.8 0.00 0.00 0.00
20260506134035 22 262 3.2 4.8 0.00 0.00 0.00
20260506133127 22 269 1.6 4.8 0.00 0.00 0.00
20260506133034 22 269 1.6 4.8 0.00 0.00 0.00
20260506130542 21 293 0.0 3.2 0.00 0.00 0.00
20260506130127 21 293 0.0 3.2 0.00 0.00 0.00
20260506130033 21 293 0.0 3.2 0.00 0.00 0.00
20260506125639 21 325 1.6 6.4 0.00 0.00 0.00
20260506125602 21 325 1.6 6.4 0.00 0.00 0.00
20260506125530 21 325 1.6 6.4 0.00 0.00 0.00
20260506125136 21 319 1.6 1.6 0.00 0.00 0.00
20260506125031 21 319 1.6 1.6 0.00 0.00 0.00
20260506124626 21 224 0.0 0.0 0.00 0.00 0.00
20260506124530 21 224 0.0 0.0 0.00 0.00 0.00
20260506124130 21 224 1.6 0.0 0.00 0.00 0.00
20260506124032 21 224 1.6 0.0 0.00 0.00 0.00
20260506122610 20 246 0.0 0.0 0.00 0.00 0.00
20260506122528 20 246 0.0 0.0 0.00 0.00 0.00
20260506122119 20 246 0.0 0.0 0.00 0.00 0.00
20260506122030 20 246 0.0 0.0 0.00 0.00 0.00
20260506121528 20 304 3.2 1.6 0.00 0.00 0.00
20260506121115 18 219 0.0 0.0 0.00 0.00 0.00
20260506121030 18 219 0.0 0.0 0.00 0.00 0.00
20260506120527 17 219 0.0 0.0 0.00 0.00 0.00
20260506120127 17 219 0.0 0.0 0.00 0.00 0.00
20260506120026 17 219 0.0 0.0 0.00 0.00 0.00
20260506115631 16 219 0.0 0.0 0.00 0.00 0.00
20260506115526 16 219 0.0 0.0 0.00 0.00 0.00
20260506114109 16 13 0.0 0.0 0.00 0.00 0.00
20260506114025 16 13 0.0 0.0 0.00 0.00 0.00
20260506113523 15 13 0.0 0.0 0.00 0.00 0.00
20260506113127 15 13 0.0 0.0 0.00 0.00 0.00
20260506113024 15 13 0.0 0.0 0.00 0.00 0.00
20260506112523 15 13 0.0 0.0 0.00 0.00 0.00
20260506112144 15 13 0.0 0.0 0.00 0.00 0.00
20260506112025 15 13 0.0 0.0 0.00 0.00 0.00
20260506111604 15 13 0.0 0.0 0.00 0.00 0.00
20260506111522 15 13 0.0 0.0 0.00 0.00 0.00
20260506111103 15 13 0.0 0.0 0.00 0.00 0.00
20260506111024 15 13 0.0 0.0 0.00 0.00 0.00
20260506110125 14 13 0.0 0.0 0.00 0.00 0.00
20260506110023 14 13 0.0 0.0 0.00 0.00 0.00
20260506105604 15 13 0.0 0.0 0.00 0.00 0.00
20260506105520 15 13 0.0 0.0 0.00 0.00 0.00
20260506105114 14 13 0.0 0.0 0.00 0.00 0.00
20260506105021 14 13 0.0 0.0 0.00 0.00 0.00
20260506104616 14 13 0.0 0.0 0.00 0.00 0.00
20260506104516 14 13 0.0 0.0 0.00 0.00 0.00
20260506103516 13 13 0.0 0.0 0.00 0.00 0.00
20260506103115 13 13 0.0 0.0 0.00 0.00 0.00
20260506103017 13 13 0.0 0.0 0.00 0.00 0.00
20260506102504 14 13 0.0 0.0 0.00 0.00 0.00
20260506102013 14 13 0.0 0.0 0.00 0.00 0.00
20260506101512 14 13 0.0 0.0 0.00 0.00 0.00
20260506101013 14 13 0.0 0.0 0.00 0.00 0.00
20260506100012 13 13 0.0 0.0 0.00 0.00 0.00
20260506095011 14 13 0.0 0.0 0.00 0.00 0.00
20260506094509 14 13 0.0 0.0 0.00 0.00 0.00
20260506094045 14 13 0.0 0.0 0.00 0.00 0.00
20260506094011 14 13 0.0 0.0 0.00 0.00 0.00
20260506093509 14 13 0.0 0.0 0.00 0.00 0.00
20260506093010 14 13 0.0 0.0 0.00 0.00 0.00
20260506092509 13 13 0.0 0.0 0.00 0.00 0.00
20260506092010 13 13 0.0 0.0 0.00 0.00 0.00
20260506091506 14 13 0.0 0.0 0.00 0.00 0.00
20260506090506 14 13 0.0 0.0 0.00 0.00 0.00
20260506085505 14 13 0.0 0.0 0.00 0.00 0.00
20260506085007 14 13 0.0 0.0 0.00 0.00 0.00
20260506084006 14 13 0.0 0.0 0.00 0.00 0.00
20260506083005 14 13 0.0 0.0 0.00 0.00 0.00
20260506082504 14 13 0.0 0.0 0.00 0.00 0.00
20260506081502 14 13 0.0 0.0 0.00 0.00 0.00
20260506073459 13 13 0.0 0.0 0.00 0.00 0.00
20260506073000 14 13 0.0 0.0 0.00 0.00 0.00
20260506072459 14 13 0.0 0.0 0.00 0.00 0.00
20260506072000 13 13 0.0 0.0 0.00 0.00 0.00
20260506070458 14 13 0.0 0.0 0.00 0.00 0.00
20260506062453 15 13 0.0 0.0 0.00 0.00 0.00
20260506061953 14 13 0.0 0.0 0.00 0.00 0.00
20260506061451 14 13 0.0 0.0 0.00 0.00 0.00
20260506060953 14 13 0.0 0.0 0.00 0.00 0.00
20260506060451 14 13 0.0 0.0 0.00 0.00 0.00
20260506051351 15 13 0.0 0.0 0.00 0.00 0.00
20260506051025 15 13 0.0 0.0 0.00 0.00 0.00
20260506050950 15 13 0.0 0.0 0.00 0.00 0.00
20260506050448 15 13 0.0 0.0 0.00 0.00 0.00
20260506044949 15 13 0.0 0.0 0.00 0.00 0.00
20260506044541 15 13 0.0 0.0 0.00 0.00 0.00
20260506044447 15 13 0.0 0.0 0.00 0.00 0.00
20260506043948 15 13 0.0 0.0 0.00 0.00 0.00
20260506043446 15 13 0.0 0.0 0.00 0.00 0.00
20260506042948 15 13 0.0 0.0 0.00 0.00 0.00
20260506042446 15 13 0.0 0.0 0.00 0.00 0.00
20260506041947 15 13 0.0 0.0 0.00 0.00 0.00
20260506041445 15 13 0.0 0.0 0.00 0.00 0.00
20260506040947 15 13 0.0 0.0 0.00 0.00 0.00
20260506040445 15 13 0.0 0.0 0.00 0.00 0.00
20260506035946 15 13 0.0 0.0 0.00 0.00 0.00
20260506035444 16 13 0.0 0.0 0.00 0.00 0.00
20260506034945 15 13 0.0 0.0 0.00 0.00 0.00
20260506034515 16 13 0.0 0.0 0.00 0.00 0.00
20260506034443 16 13 0.0 0.0 0.00 0.00 0.00
20260506033944 16 13 0.0 0.0 0.00 0.00 0.00
20260506033443 16 13 0.0 0.0 0.00 0.00 0.00
20260506032944 15 13 0.0 0.0 0.00 0.00 0.00
20260506032442 16 13 0.0 0.0 0.00 0.00 0.00
20260506031943 16 13 0.0 0.0 0.00 0.00 0.00
20260506031442 16 13 0.0 0.0 0.00 0.00 0.00
20260506030943 16 13 0.0 0.0 0.00 0.00 0.00
20260506030441 16 13 0.0 0.0 0.00 0.00 0.00
20260506025942 16 13 0.0 0.0 0.00 0.00 0.00
20260506025440 16 13 0.0 0.0 0.00 0.00 0.00
20260506024941 16 13 0.0 0.0 0.00 0.00 0.00
20260506024439 17 13 0.0 0.0 0.00 0.00 0.00
20260506023941 17 13 0.0 0.0 0.00 0.00 0.00
20260506023439 17 13 0.0 0.0 0.00 0.00 0.00
20260506022940 17 13 0.0 0.0 0.00 0.00 0.00
20260506022438 17 13 0.0 0.0 0.00 0.00 0.00
20260506021939 17 13 0.0 0.0 0.00 0.00 0.00
20260506021437 17 13 0.0 0.0 0.00 0.00 0.00
20260506020938 17 13 0.0 0.0 0.00 0.00 0.00
20260506020436 17 13 0.0 0.0 0.00 0.00 0.00
20260506015433 18 13 0.0 0.0 0.00 0.00 0.00
20260506014934 18 13 0.0 0.0 0.00 0.00 0.00
20260506014432 18 13 0.0 0.0 0.00 0.00 0.00
20260506013934 18 13 0.0 0.0 0.00 0.00 0.00